Regional Weather Roundup
Issued by NWS

Home | Current Version | Previous Version | Graphics & Text | Print | Product List | Glossary On
Versions: 1 2 3 4 5 6 7 8 9 10 11 12 13 14 15 16 17 18 19 20 21 22 23 24 25 26 27
000
ASUS45 KBOU 281607
RWRCO

WEATHER ROUNDUP FOR COLORADO
NATIONAL WEATHER SERVICE DENVER/BOULDER CO
1000 AM MDT WED JUN 28 2017

NOTE: "FAIR" INDICATES FEW OR NO CLOUDS BELOW 12000 FEET WITH NO
SIGNIFICANT WEATHER AND/OR OBSTRUCTIONS TO VISIBILITY.

COZ001>005-013-030-031-281700-
...NORTHWEST COLORADO...

CITY           SKY/WX    TMP DP  RH WIND       PRES   REMARKS
CRAIG          FAIR      71  40  32 NE6       30.01F
HAYDEN         FAIR      66  37  34 E6        30.04F
MEEKER         FAIR      72  37  28 CALM      30.02F
RABBIT EARS PA FAIR      55  32  41 SW5       30.30F
STEAMBOAT SPGS PTSUNNY   61  44  53 CALM      30.06F
WALDEN         FAIR      63  37  39 S5        30.14F
$$

COZ006>008-011-281700-
...WEST CENTRAL VALLEYS...

CITY           SKY/WX    TMP DP  RH WIND       PRES   REMARKS
GRAND JUNCTION FAIR      81  32  17 SE9       29.90F
MONTROSE       FAIR      74  28  18 NW9       29.98F
EAGLE          NOT AVBL
RIFLE          FAIR      74  31  20 CALM      29.97F
DELTA          FAIR      80  27  14 E3        29.95F
NUCLA          FAIR      79  19  11 S6        30.04F
$$

COZ017>023-064>068-281700-
...SOUTHWEST COLORADO...

CITY           SKY/WX    TMP DP  RH WIND       PRES   REMARKS
DURANGO        FAIR      71  20  14 VRB6      30.12F
CORTEZ         FAIR      79  24  13 CALM      30.05F
PAGOSA SPRINGS FAIR      68  11  11 SW6       30.20F
TELLURIDE      FAIR      68  20  16 SW3       30.27S
WOLF CREEK PAS FAIR      50  14  23 SW10G18   30.50F
$$

COZ009-010-012-014-032>034-037-058>063-281700-
...CENTRAL COLORADO...

CITY           SKY/WX    TMP DP  RH WIND       PRES   REMARKS
ASPEN          FAIR      64  36  35 N6        30.10S
BUENA VISTA    FAIR      67  25  20 E3        30.16F
COPPER MTN     FAIR      59  19  21 W7        30.41F
BERTHOUD PASS  FAIR      45  32  61 W16G30    30.44S
COTTONWOOD PAS FAIR      64  23  20 E7        30.28F
GUNNISON       FAIR      60  30  32 CALM      30.16F
KREMMLING      FAIR      68  36  30 CALM      30.12F
LEADVILLE      FAIR      57  25  29 VRB7      30.25F
MONARCH PASS   FAIR      54  12  19 W18G29    30.53F
SALIDA         FAIR      69  29  22 E7        30.20F
SUNLIGHT       FAIR      59  30  33 W5        30.35S
WILKERSON PASS FAIR      55  27  33 SW6       30.40F
$$

COZ069>075-281700-
...SAN LUIS VALLEY/SANGRE DE CRISTO MOUNTAINS...

CITY           SKY/WX    TMP DP  RH WIND       PRES   REMARKS
ALAMOSA        FAIR      70  24  17 S8        30.13F
DEL NORTE      FAIR      66  28  24 NE6       30.17F
LA VETA PASS   FAIR      63  32  31 MISG      30.44S
SAGUACHE       FAIR      66  27  22 S10G16    30.17F
$$

COZ035-036-038>040-281700-
...NORTHERN COLORADO FRONT RANGE...

CITY           SKY/WX    TMP DP  RH WIND       PRES   REMARKS
DENVER INTL AP PTSUNNY   73  39  29 SE12      29.96F
DMNS CITY PARK   N/A     74  42  31 SE10G20   29.96F
AURORA         PTSUNNY   71  39  30 SE8       29.98F
FRONT RANGE AP FAIR      73  37  27 SE10G21   29.98F
ERIE MUNI ARPT FAIR      76  38  26 SE10      29.95F
BOULDER MUN AP FAIR      75  39  27 SE8       29.95F
CENTENNIAL     FAIR      74  38  27 S10       29.98F
BROOMFIELD     FAIR      72  37  28 SE13      29.98F
FORT COLLINS   FAIR      73  44  35 S12       29.94F
LONGMONT       FAIR      78  40  25 SE7       29.96F
$$

COZ041-046-047-076>085-087-088-281700-
...PIKES PEAK/PALMER DIVIDE AND SOUTHERN FOOTHILLS...

CITY           SKY/WX    TMP DP  RH WIND       PRES   REMARKS
COLO. SPRINGS  FAIR      74  37  26 S12       30.05F
A. F. ACADEMY  FAIR      71  37  28 S10       30.05F
SCHRIEVER AFB  FAIR      72  36  27 S8G18     30.05F
CHEYENNE MTN   FAIR      71  38  30 E10       30.03F
ELLICOTT       FAIR     N/A N/A N/A VRB6      30.03F
FALCON           N/A     73  32  22 S9G22     30.09F
FORT CARSON    FAIR      75  37  24 S12       30.01F
LIMON          FAIR      76  43  30 N7        29.98F
MONUMENT HILL  FAIR      70  37  30 S7        30.09F
CANON CITY     SUNNY     79  41  25 CALM      30.00F
WALSENBURG     FAIR      77  37  24 CALM      30.04F
TRINIDAD       FAIR      76  38  25 NW3       30.03F
$$

COZ042>045-048>051-090-091-281700-
...NORTHEAST COLORADO...

CITY           SKY/WX    TMP DP  RH WIND       PRES   REMARKS
GREELEY ARPT   FAIR      78  45  30 S10       29.94F
AKRON          FAIR      74  41  30 NW9       29.93F
BURLINGTON     FAIR      79  49  34 N15       29.89S
WRAY           FAIR      79  45  29 NW7       29.87F
YUMA           FAIR      73  39  29 N6        29.90F
STERLING       FAIR      77  45  31 CALM      29.89S
HOLYOKE        NOT AVBL
FORT MORGAN    FAIR      76  41  28 W6        29.94S
$$

COZ086-089-092>099-281700-
...SOUTHEAST COLORADO...

CITY           SKY/WX    TMP DP  RH WIND       PRES   REMARKS
PUEBLO         FAIR      80  40  23 CALM      29.95F
LA JUNTA       FAIR      77  46  33 VRB3      29.92F
LAMAR          FAIR      83  48  29 N9        29.86S
SPRINGFIELD      N/A     80  50  34 NW18G26   29.90R
$$




USA.gov is the U.S. government's official web portal to all federal, state and local government web resources and services.